Location: ČR
(50.0000°N, 15.0000°E)
Time: 12:33:57
(UTC+00:00)

ISS - Pass Details

Date: 25 September 2021
Orbit: 417 x 423 km, 51.6° (Epoch: 16 October)

Event Time Altitude Azimuth Distance (km) Brightness Sun altitude
Rises 19:40:49 0° 286° (WNW) 2,367 1.2 -26.7°
Reaches altitude 10° 19:42:55 10° 286° (WNW) 1,503 -0.1 -26.9°
Enters shadow 19:44:16 22° 286° (WNW) 964 -1.3 -27.1°
